Погода в Кызылжаре

Погода в Кызылжаре : погода сейчас, прогноз погоды и архив. Всё, что Вы хотите узнать о погоде в Кызылжаре!

Поиск расширенной информации на нашем сайте:

Другие новости

Новости СМИ2

Главная страница сайта

Новости сайта

02.10.2013

Напоминаем, что на нашем новом сайте вы можете получить высокодетализированные прогнозы погоды по пунктам России, СНГ и мира (включающие важные для авиации метеовеличины, такие как направление и скорость ветра, видимость, явления погоды, количество и форма облачности, нижняя и верхняя граница облачности), а также ознакомиться с разнообразными материалами по авиационной метеорологии и подборкой полезных ссылок на эту тему.

Сайт Метеоцентр.Азия посвящён разработке технологий оптимизации авиаметеорологического обслуживания, включая проектирование и перспективное создание нескольких автоматизированных авиаметеорологических систем:
- система выпуска высокодетальных прогностических карт явлений погоды для нижнего воздушного пространства по России и ближнему зарубежью;
- система верификации прогнозов TAF (выпускаемых синоптиками официальных АМСГ РФ и ближнего зарубежья) и AUTOTAF (выпускаемых сайтом Метеоцентр.Азия) - выявление ошибок, онлайн-сопоставление с фактической погодой METAR, автоматическое внесение коррективов в прогнозы при резком отклонении фактической погоды от прогноза, подсчёт оправдываемости прогнозов по элементам и в целом;
- система обработки, анализа и отображения авиаметеорологической информации для применения провайдерами метеорологической информации.

Рекомендуем: Годування собаки

Погода в Кызылжаре - сегодня

Время (UTC), дата Ветер
(°,м/с) 
Видим.   Явления Облачность Т
(°С)
Тd
(°С)
f(%) Тe
(°С)
Pmin
(гПа)
dP
(гПа)
Po
(мм)
O2
(г/м3)
Тmin Tmax R s Состояние
почвы
21 19.04.17 070 (В) н/о    ясно 
+7.2 +1.3 66 +8  1020  -0.5  732  287           
00 20.04.17 070 (В) н/о    ясно 
+5.1 -0.4 68 +6  1019.7  -0.8  732  289           
03 20.04.17 080 (В) 20000 м    ясно 
+11.8 +4.4 60 +12  1018.4  -0.3  732  282           
06 20.04.17 090 (В) 20000 м    ясно 
+19.8 +7.6 45 +20  1017.2  -0.3  732  274  +5.1         
09 20.04.17 100 (В) 20000 м    ясно 
+22.8 +3.4 28 +23  1014.2  -3.1  730  271           
12 20.04.17 100 (В) 20000 м    ясно 
+23.2 -0.4 21 +23  1012.8  -1.7  729  271           
15 20.04.17 080 (В) н/о    5/0 верхняя 
[Ci fib]
+18 +0.2 30 +18  1013.1  -0.5  729  275    +24.3       
18 20.04.17 080 (В) н/о    3/0 верхняя 
[Ci fib]
+13 +0.9 44 +12  1013.4  -0.7  728  280    +24.3       
21 20.04.17 070 (В) н/о    3/0 верхняя 
[Ci fib]
+11 +2.6 56 +10  1012.4  -1.6  727  281           
00 21.04.17 100 (В) н/о    8/8 2000 м средняя 
[Ac cast]
+10.4 +2.9 60 +9  1011.3  -1.5  727  282           
03 21.04.17 110 (В) 20000 м    9/9 2000 м средняя 
[Ac As]
+14.1 +2.9 47 +13  1009.3  -1.4  725  277           
06 21.04.17 120 (ЮВ) 20000 м  {ливн. осадки}  10/10 600 м кучево-дожд. 
[Cb cap]
+11.9 +5.8 66 +11  1009.7  0.1  726  279  +10         
09 21.04.17 130 (ЮВ) 20000 м  {ливн. осадки}  10/6 600 м кучево-дожд., средняя 
[Cb calv|Ac As]
+13.9 +7.5 65 +13  1007.1  -2.9  724  276           
12 21.04.17 190 (Ю) 20000 м  {ливн. осадки}  10/6 600 м кучево-дожд., средняя 
[Cb calv|Ac As]
+16.4 +8.7 60 +16  1005.2  -2  723  273           
18 21.04.17 220 (ЮЗ) н/о  {ливн. осадки}  10/10 600 м кучево-дожд. 
[Cb calv]
+12.4 +8.9 79 +12  1005.9  0.5  723  277    +16.7  0.9     
21 21.04.17 230 (ЮЗ) н/о  слаб. ливневой дождь  10/10 600 м кучево-дожд. 
[Cb calv]
+12.3 +9.4 82 +13  1006.7  1.1  723  277           
00 22.04.17 250 (З) н/о  {ливн. осадки}  3/0 верхняя 
[Ci ing]
+9.8 +7.1 83 +10  1008.9  2.3  725  281           
06 22.04.17 260 (З) 20000 м    1/0 верхняя 
[Ci fib]
+16.4 +8.2 58 +16  1013.1  3.5  728  275  +9.8       
09 22.04.17 250 (З) 20000 м    ясно 
+18 +5.9 45 +19  1014.6  2.1  730  275           
12 22.04.17 270 (З) 20000 м    ясно 
+16.6 +0.4 33 +17  1016.6  2.3  731  278           
15 22.04.17 270 (З) н/о    ясно 
+12.1 -1.9 38 +12  1018.2  1.2  732  282    +18.4       
18 22.04.17 260 (З) н/о    ясно 
+7 +0.5 63 +7  1021.8  3.6  734  288    +18.4       
21 22.04.17 100 (В) н/о    ясно 
+5 +0.4 72 +4  1021.5  -0.8  733  290           
00 23.04.17 110 (В) н/о    9/0 верхняя 
[Ci]
+4.1 +0.2 76 +4  1020.8  -1.1  733  291           
03 23.04.17 180 (Ю) 20000 м    10/10 2000 м 
[Ac As]
+8.7 +2.9 67 +7  1019  -1.3  732  285           
Время (UTC), дата Ветер
(°,м/с) 
Видим.   Явления Облачность Т
(°С)
Тd
(°С)
f(%) Тe
(°С)
Pmin
(гПа)
dP
(гПа)
Po
(мм)
O2
(г/м3)
Тmin Tmax R s Состояние
почвы

Для получения пояснительной информации подведите курсор к названию столбца.

ПОГОДА в Кызылжаре - архив

Всё, что Вы хотите узнать о погоде в Кызылжаре - удобно и подробно!

Выберите нужную дату (начиная с 1 января 2015* года) и нажмите кнопку "Найти".
Будут отображены архивные сводки погоды по пункту Кызылжар, начиная с указанной даты.


Отображать данные в формате CSV (для использования в таблицах Excel)


Внимание! Наш архив погоды предназначен исключительно для личного некоммерческого использования в познавательных целях. Если Вам необходимы официальные справки о состоянии погоды (для производственных, юридических, коммерческих и т.п. целей), обращайтесь в органы Росгидромета.

*Примечание: данная дата относится к архиву по метеостанциям СССР (Россия, СНГ, Балтия).
Архив по метеостанциям Зарубежной Европы и Азии (кроме Китая) хранится 10 дней, по другим регионам земного шара (Китай, Африка, Америка, Австралия, Океания) - 1 день.

Кызылжар - район местоположения метеостанции


Название, широта, долгота, высота метеостанции:
Кызылжар 48.3°ш. 69.6°д. 361 м над ур. моря [Казахстан]

Дополнительная информация

В oтличие oт бoльшинства пoгoдных сайтoв мы публикуем пoдрoбную метеoинфoрмацию в детальнoм прoфессиoнальнoм фoрмате.

Характеристики температуры и влажнoсти вoздуха измеряются на высoте 2 м в тени вдали oт зданий и деревьев.
Скoрoсть ветра измеряется на высoте 10 м (на урoвне рoста челoвека скoрoсть ветра ниже в 1.5-2 раза). Если метеoстанция нахoдится в гoрoде или в лесу, тo скoрoсть ветра занижена на 2-4 м/с пo сравнению с oткрытым местoм. Скoрoсть ветра над акватoриями крупных рек и oзёр, а также на вершинах хoлмoв на 2-5 м/с выше, чем в oбычных услoвиях.
Атмoсфернoе давление в разных тoчках местнoсти мoжет значительнo oтличаться oт давления на метеoстанции, в зависимoсти oт услoвий рельефа (при пoдъёме на 10 м давление пoнижается примернo на 1 мм рт.ст.).